Weather in Monterey

United States     36°36′22″N   121°48′23″W
temp.,
°C
wind,
m/s
gust,
m/s
humid.,
%
clouds,
%
prec.,
mm/h
press.,
hPa
HPBL,
m
16 may, sun
sun1623:00+7wsw119853 0.0 101446
02:00+7ssw2295100 0.0 101350
05:00+7s119513 0.0 101416
08:00+11w128099 0.0 1015349
11:00+16nw32589 0.0 1014783
14:00+18nw43569 0.0 1014772
17:00+16wnw43646 0.0 1014540
20:00+9w239513 0.0 101585
17 may, mon
mon1723:00+8wsw229651 0.0 101654
02:00+8wsw229251 0.0 1017205
05:00+7wsw119151 0.1 1017171
08:00+10wnw228139 0.0 1018316
11:00+15nw43572 0.0 1017500
14:00+15wnw556296 0.0 1018528
17:00+14wnw456753 0.0 1017475
20:00+9wsw2394100 0.0 1019235
18 may, tue
tue1823:00+7wsw239645 0.0 102096
02:00+7wsw239742 0.0 1019107
05:00+7wsw239728 0.0 101997
08:00+11w23778 0.0 1019274
11:00+18wnw45440 0.0 1018573
14:00+17wnw47410 0.0 1019569
17:00+16w47360 0.0 1017513
20:00+7wsw3481100 0.0 1019170
19 may, wed
wed1923:00+6wsw349878 0.0 1020137
02:00+6wsw3498100 0.0 1018162
05:00+5w2496100 0.0 1019124
08:00+8wnw47772 0.0 1019562
11:00+12wnw57565 0.0 1017786
14:00+13wnw57510 0.0 1017796
17:00+11wnw58560 0.0 1017752
20:00+6w310850 0.0 1017600
20 may, thu
thu2023:00+6wnw389443 0.0 1018458
02:00+7wnw4118766 0.0 1018844
05:00+5wnw498742 0.0 1018576
08:00+8wnw59682 0.0 1019861
11:00+11wnw79554 0.0 10181177
14:00+11wnw69540 0.0 10181073
17:00+10wnw710620 0.0 10171049
20:00+7wnw6108479 0.1 1018946